RH
23 43 36 18 16 12 11 10 10 18 29 26 18 17 15 13 14 17 17 23 29 26 38 44 50 37 32 31 25 30 30 26 25 23 23 29 24 24 32 30 35 37 38 38
23 38 33 27 22 16 16 12 14 22 26 23 15 16 13 12 18 25 26 28 29 37 44 51 55 37 41 39 30 31 25 23 22 25 30 32 33 34 35 34 32 32 33 34
32 38 36 25 21 18 21 15 19 28 25 23 21 15 17 23 26 33 34 33 33 36 43 50 52 54 46 30 30 23 23 31 32 28 26 26 30 34 43 37 28 29 31 32
38 38 29 26 25 26 19 32 32 28 25 22 20 14 12 23 26 29 31 34 35 38 43 46 49 51 47 30 22 30 33 29 26 26 26 26 27 32 31 30 31 32 35 35
52 37 34 29 44 36 40 37 35 36 33 33 24 37 15 20 23 25 26 32 36 40 43 46 48 39 29 25 35 33 28 27 28 27 26 25 26 28 29 32 32 35 36 38
48 49 45 43 43 38 39 32 32 39 41 64 35 40 30 17 25 22 24 29 35 42 42 42 40 29 29 36 33 29 29 30 29 26 23 23 24 26 28 31 34 36 38 40
37 46 46 46 42 41 38 49 75 81 78 48 53 48 25 22 26 27 25 28 36 43 39 43 36 39 38 35 31 32 33 32 28 26 24 24 25 27 30 33 36 36 36 37
52 64 47 46 45 44 41 37 56 42 29 22 32 30 34 27 31 35 30 30 38 40 37 43 46 48 38 33 34 36 35 32 28 25 24 24 25 29 34 37 39 41 41 41
27 49 53 52 48 45 40 40 30 34 27 24 18 21 20 26 29 37 36 36 43 38 39 43 50 47 41 35 37 38 35 31 27 25 25 26 29 33 38 41 43 43 43 42
22 47 49 54 51 46 42 30 35 40 36 22 16 17 38 49 30 33 39 42 42 39 40 44 49 49 47 41 39 39 34 30 29 28 27 27 30 35 41 43 44 43 40 35
22 20 47 49 51 38 42 35 33 32 24 20 12 29 23 56 32 31 34 40 39 39 38 41 45 45 50 50 42 40 33 33 32 30 30 29 31 36 42 45 46 46 45 42
27 18 35 30 39 38 41 31 25 25 22 22 23 24 14 18 24 30 30 33 35 38 34 34 38 42 48 52 50 38 36 36 36 34 32 30 32 36 45 52 53 48 40 36
26 23 26 27 35 38 40 31 29 26 33 25 15 12 14 19 22 24 24 25 28 37 37 32 33 40 45 50 51 38 40 40 39 36 33 30 29 32 40 46 39 23 15 12
34 22 20 19 22 27 35 37 34 29 48 22 18 12 12 13 20 24 29 29 29 29 32 36 36 38 45 48 49 42 45 44 41 38 35 32 28 23 21 19 14 13 13 15
38 29 31 30 21 22 23 22 35 47 33 25 20 21 19 23 28 31 32 32 34 34 34 34 40 40 45 50 49 46 48 47 44 41 40 37 31 24 18 15 16 18 19 19
41 35 40 44 34 38 40 33 28 26 32 33 31 34 27 34 35 35 36 41 39 38 37 37 40 46 48 48 50 56 52 52 50 47 46 43 37 29 24 25 27 27 26 25
38 37 53 62 51 50 54 45 44 42 37 36 44 36 39 41 44 48 52 50 51 53 50 47 45 49 51 50 54 59 59 57 55 54 53 49 45 42 41 40 37 35 31 26
40 41 48 61 53 70 46 42 40 40 42 40 38 38 45 48 48 50 50 51 50 50 52 54 52 54 56 58 61 60 59 60 60 59 56 53 52 52 51 50 47 41 31 26
40 40 54 66 58 45 38 37 38 46 45 42 44 50 51 51 48 49 54 58 56 52 52 56 60 61 63 65 68 67 63 64 63 60 59 58 60 60 57 52 44 35 28 26
49 46 52 59 72 63 39 41 39 31 51 51 52 54 61 63 54 43 63 58 56 60 64 62 63 69 74 73 73 72 68 69 67 64 62 62 62 58 48 43 42 40 37 32
66 64 69 65 70 55 43 43 44 60 61 56 64 76 85 77 71 65 61 64 68 72 78 77 79 80 77 75 74 71 73 76 67 64 65 61 53 48 45 40 34 29 26 25
54 61 67 60 70 78 50 48 52 60 84 94 98 93 77 66 65 68 76 77 78 80 83 85 86 80 74 76 75 71 71 70 71 68 54 42 34 34 37 29 23 20 19 21
61 45 48 49 53 59 66 70 97 98 98 96 74 64 75 76 74 74 71 69 67 68 71 75 76 77 77 73 69 70 46 40 43 41 40 42 41 38 37 36 34 27 22 26
43 43 53 50 48 60 84 99 98 95 75 70 81 81 74 64 58 51 51 53 51 52 54 57 62 62 57 51 49 50 53 54 55 57 48 46 48 44 37 30 32 37 40 41
51 57 54 54 71 98 98 98 81 73 82 74 62 56 53 52 45 38 36 34 33 37 41 45 51 56 61 56 56 60 62 61 57 54 45 46 51 47 45 44 43 40 34 35
66 57 60 94 99 96 64 77 75 76 65 56 54 47 41 37 31 28 28 27 29 31 34 37 39 44 48 54 56 57 59 59 56 56 60 54 48 50 53 56 53 33 34 32
Wind_Speed
6 3 8 12 1 3 3 7 6 4 2 4 7 11 12 12 13 14 11 6 4 8 7 8 9 9 8 5 3 3 7 9 8 8 7 6 7 9 9 12 13 14 15 16
5 5 5 2 1 5 4 5 4 5 2 3 8 14 14 11 8 5 4 4 6 8 9 9 8 8 7 5 3 4 6 5 6 7 8 9 10 10 11 12 15 17 17 18
4 5 1 2 4 6 4 3 3 2 3 4 9 13 7 4 4 3 3 3 7 9 11 10 9 7 5 5 3 2 2 4 6 8 9 11 12 13 11 13 15 16 17 17
7 2 2 3 4 6 4 3 3 2 3 3 3 6 7 8 6 5 6 7 8 9 10 10 9 7 6 4 3 3 2 4 6 8 10 11 12 13 15 16 17 17 17 17
2 3 3 3 4 6 5 1 3 2 2 4 5 3 3 3 6 8 9 10 10 9 10 10 9 9 7 7 5 2 2 4 6 9 11 12 13 14 16 16 17 16 16 17
5 3 4 3 5 5 7 2 1 1 1 3 2 3 4 3 1 4 11 11 11 11 10 10 10 9 9 7 4 2 1 4 8 10 11 13 14 15 16 16 17 17 16 16
4 3 3 1 2 2 2 0 0 1 2 2 3 3 7 3 2 1 11 14 13 12 12 12 12 11 10 7 5 2 3 7 8 9 11 13 14 15 16 17 17 18 18 17
5 2 2 2 2 2 2 2 2 4 2 2 4 6 2 4 2 3 6 12 13 12 12 12 12 12 11 9 6 3 5 7 8 11 12 14 15 16 15 16 16 16 17 17
4 3 3 3 1 3 4 4 2 2 1 3 4 5 6 2 3 4 6 10 12 12 12 13 13 12 11 10 6 5 5 7 8 10 12 14 15 15 15 15 15 16 17 17
1 3 0 2 2 2 3 1 1 1 3 4 5 4 2 2 1 4 6 11 13 13 15 15 14 13 12 10 8 6 6 6 8 10 12 14 15 15 15 15 15 16 16 17
2 2 3 1 5 0 3 2 2 3 3 3 6 2 2 4 0 3 6 10 14 16 16 15 13 11 9 9 9 7 6 6 8 11 13 14 15 15 15 15 15 16 16 16
3 3 2 2 2 2 3 3 6 3 4 1 3 6 3 4 4 3 3 4 10 13 14 14 14 13 12 10 9 8 6 5 7 10 12 14 15 16 16 16 17 17 16 16
1 2 2 3 3 3 5 9 7 2 1 7 5 1 4 7 6 4 7 13 12 11 12 14 16 17 15 12 11 9 6 6 8 11 13 15 16 16 16 17 17 17 16 16
2 3 7 4 3 3 4 9 11 10 4 7 12 14 9 6 6 14 14 10 8 11 13 16 17 18 16 14 11 10 8 8 10 12 14 15 16 17 17 16 16 15 15 15
3 4 2 9 8 6 9 10 14 16 18 9 15 14 13 14 11 7 11 9 11 13 13 15 17 18 16 14 12 12 10 9 11 12 14 16 17 17 17 17 16 16 16 16
2 2 2 5 2 7 12 15 16 19 20 18 21 22 10 8 10 11 10 11 12 13 12 11 14 15 15 14 11 11 11 12 13 15 17 18 18 19 19 18 18 19 19 20
3 2 1 4 2 7 12 12 18 12 11 10 14 10 9 6 6 6 8 11 14 16 16 11 7 11 12 12 10 9 9 13 16 17 19 19 20 21 21 21 21 21 22 22
3 4 2 5 6 5 3 2 5 9 4 5 10 6 4 6 0 5 9 12 15 16 16 13 8 7 9 11 11 14 17 18 19 19 20 20 21 22 22 23 25 25 25 24
8 6 4 4 6 13 12 3 1 4 6 3 3 2 5 9 4 7 10 17 18 17 17 16 13 10 11 12 13 18 20 20 19 19 20 20 21 23 24 25 25 24 25 25
7 7 6 3 5 5 5 5 1 1 6 7 4 3 7 12 4 3 23 21 17 16 16 17 17 16 16 14 14 19 19 15 18 18 18 22 24 24 24 24 24 26 28 30
4 5 12 11 7 8 5 5 1 4 2 5 2 5 7 6 10 19 19 16 14 15 16 17 16 15 14 15 19 20 20 23 20 22 23 23 23 25 25 27 28 28 31 32
6 5 5 6 5 9 2 4 5 4 6 2 5 8 11 12 13 14 14 15 16 17 17 16 17 17 18 19 21 23 20 20 19 20 22 24 25 25 26 28 29 29 30 31
5 9 5 6 2 6 7 10 7 4 1 6 8 8 8 8 10 13 16 17 18 19 19 19 18 18 17 17 16 18 23 21 21 23 26 26 27 28 29 27 29 31 32 31
10 8 5 6 5 5 6 2 1 4 6 6 3 5 7 9 11 14 15 17 20 20 20 20 20 20 22 21 20 20 21 21 22 24 27 27 26 28 29 30 29 29 30 30
4 4 7 11 2 3 4 8 6 5 4 4 4 5 7 9 12 14 17 20 21 24 25 24 24 26 27 26 26 25 26 26 28 31 32 28 27 29 30 31 31 32 33 32
7 11 9 4 7 4 5 6 7 6 6 7 7 8 9 11 14 16 19 23 26 26 27 28 28 28 30 31 31 32 33 33 33 33 32 29 30 30 30 30 33 38 38 38
Wind_Direction
169 192 187 187 27 32 123 206 211 114 105 289 253 271 271 259 250 266 262 264 233 184 177 166 170 179 187 202 216 280 320 328 342 355 3 358 346 346 341 334 337 338 336 334
172 157 57 80 158 116 135 178 160 121 131 287 290 279 269 269 258 263 241 204 170 168 164 164 166 177 173 188 222 295 318 340 0 6 359 352 345 341 333 331 338 333 330 326
166 91 125 208 137 140 66 298 96 6 302 238 294 266 201 192 198 175 177 147 161 167 163 159 159 159 174 197 235 297 34 20 8 1 356 354 350 346 339 321 330 329 328 328
74 78 118 129 93 331 174 43 68 8 328 298 342 293 208 172 190 206 182 174 158 157 159 159 160 153 175 192 166 131 43 6 5 2 354 346 339 333 330 330 333 334 332 329
75 99 81 96 17 330 72 64 52 19 324 322 170 253 246 107 219 211 198 181 171 168 169 165 167 181 187 173 159 140 20 12 360 350 346 343 339 336 335 334 334 333 332 330
89 80 28 62 60 50 130 166 105 127 286 237 82 240 276 196 68 176 188 183 178 174 171 170 182 182 181 174 167 136 30 351 346 347 347 348 346 343 341 339 338 336 337 334
127 53 89 22 144 148 237 212 157 273 199 284 176 242 265 153 153 235 190 187 186 184 181 181 182 181 184 185 183 186 334 339 340 346 348 349 349 347 344 342 340 338 338 337
160 205 176 30 336 332 171 271 273 260 253 23 176 236 249 111 226 199 215 193 189 190 189 188 187 193 196 199 203 260 316 327 338 346 351 352 350 349 348 346 345 345 344 343
161 131 131 50 326 310 139 216 24 298 191 260 226 245 165 16 185 202 197 191 198 200 200 200 201 203 209 213 230 271 312 330 339 348 353 353 352 352 350 349 348 346 345 344
79 117 42 94 297 77 312 35 191 197 263 253 218 263 286 31 247 201 202 211 211 211 210 208 209 210 215 225 243 275 308 324 339 351 354 351 349 348 345 344 343 344 344 345
331 279 108 213 199 242 151 214 238 301 278 287 304 98 95 182 150 228 215 215 220 223 220 218 218 218 221 229 248 273 294 324 346 350 347 345 342 339 336 332 331 331 332 334
31 327 161 57 87 333 300 278 245 249 168 272 298 281 117 58 33 357 317 287 259 244 237 232 227 223 224 228 241 258 281 315 331 337 338 336 334 332 328 323 322 323 324 325
63 207 207 184 179 197 232 204 228 201 312 238 269 241 128 119 105 69 325 313 301 254 246 238 231 227 226 226 230 249 263 287 316 329 330 329 325 320 316 313 314 316 317 319
322 273 260 278 36 112 196 206 211 205 201 238 229 266 245 262 314 332 338 307 290 281 268 251 237 230 228 226 227 241 254 281 308 319 323 322 318 315 312 310 310 311 313 315
301 282 308 296 284 252 264 237 213 214 225 241 266 276 295 327 338 343 323 333 323 314 295 261 243 234 228 226 227 235 252 282 304 315 320 318 314 311 308 306 307 308 310 310
181 261 331 278 275 259 257 254 250 242 247 258 271 281 329 15 334 331 349 351 350 344 327 288 250 241 235 232 231 237 266 287 305 313 316 312 308 306 304 303 303 303 305 308
230 253 276 263 334 306 270 252 237 231 242 255 256 275 2 1 17 40 33 21 15 6 1 347 286 252 245 244 245 256 269 285 299 304 307 306 304 304 304 304 302 302 303 303
225 232 282 289 299 249 74 1 310 220 238 276 254 302 4 355 112 90 43 17 1 356 354 352 332 282 263 259 261 271 281 291 294 297 300 300 298 297 298 299 300 303 303 303
222 225 252 254 249 296 275 155 135 207 207 230 162 90 11 345 246 199 18 354 343 338 334 330 321 298 277 270 273 276 284 289 289 294 295 292 293 297 299 297 298 300 300 300
215 247 244 174 260 265 96 133 81 198 256 138 124 54 12 352 302 327 341 337 336 335 334 324 311 296 293 292 280 288 291 286 286 284 279 284 292 294 295 296 295 297 297 297
175 210 223 235 254 273 102 134 88 233 58 135 58 2 343 322 304 307 318 323 328 331 332 326 317 308 302 292 295 295 294 296 290 283 288 294 296 296 294 293 293 296 296 296
204 208 205 222 245 262 93 139 227 85 91 57 330 308 296 302 311 318 321 321 322 320 318 313 307 305 302 299 297 297 293 295 292 290 293 297 298 298 295 297 300 299 299 298
244 226 300 221 255 98 63 100 103 99 356 296 283 307 314 318 318 316 315 315 314 314 312 311 306 303 300 295 289 288 295 294 293 296 302 301 298 297 297 294 295 297 299 294
256 242 246 272 162 186 135 123 154 308 274 298 310 312 309 308 314 317 318 318 317 315 313 311 307 302 299 295 290 286 290 293 292 289 294 291 285 284 285 287 286 283 280 282
290 170 243 268 70 105 229 247 259 247 246 270 284 291 301 309 312 313 311 310 307 305 304 304 302 298 293 291 287 289 289 291 291 293 295 285 281 283 286 285 286 286 291 287
213 238 253 262 150 208 288 213 225 232 243 259 266 279 288 298 303 309 307 305 303 302 300 301 301 298 293 292 289 287 288 288 285 284 283 285 287 285 284 282 286 296 296 297